Regional Weather Roundup
Issued by NWS Glasgow, MT

Home | Current Version | Previous Version | Text Only | Print | Product List | Glossary On
Versions: 1 2 3 4 5 6 7 8 9 10 11 12 13 14 15 16 17 18 19 20 21 22 23 24 25 26 27 28 29 30 31 32 33 34 35 36 37 38 39 40 41 42 43 44 45 46 47 48 49 50
000
ASUS45 KGGW 251015
RWRGGW
HOURLY REGIONAL WEATHER ROUNDUP FOR NORTHEAST MONTANA
NATIONAL WEATHER SERVICE GLASGOW MONTANA
400 AM MDT SUN JUN 25 2017

NOTE: "FAIR" INDICATES FEW OR NO CLOUDS BELOW 12,000 FEET WITH NO
SIGNIFICANT WEATHER AND/OR OBSTRUCTIONS TO VISISBILITY.

NORTHEAST MONTANA


CITY           SKY/WX    TMP DP  RH WIND       PRES   REMARKS
GLASGOW        CLEAR     45  33  63 N7        30.25S
PLENTYWOOD       N/A     50  39  66 S3          N/A
WOLF POINT     CLEAR     42  32  67 NW6       30.25F
JORDAN           N/A     43  28  55 W8        30.28S
WINNETT          N/A     41  33  73 W2          N/A
SIDNEY         PTCLDY    45  35  68 SW10      30.25F
GLENDIVE       CLEAR     48  33  56 S5        30.29S
MALTA            N/A     46  38  73 SW3         N/A

FORT PECK REPORTS


CITY           SKY/WX    TMP DP  RH WIND       PRES   REMARKS
FORT PECK        N/A     57  41  55 S5          N/A
THE PINES        N/A     54  38  54 CALM        N/A

SOUTHEAST MONTANA


CITY           SKY/WX    TMP DP  RH WIND       PRES   REMARKS
BILLINGS       CLOUDY    56  39  53 W3        30.31F
MILES CITY     CLEAR     50  31  48 S8        30.29F
BAKER          CLEAR     50  31  48 S14       30.31F
LIVINGSTON     CLEAR     41  35  79 S5        30.36S

CENTRAL MONTANA


CITY           SKY/WX    TMP DP  RH WIND       PRES   REMARKS
HAVRE          CLEAR     42  38  85 SW3       30.30F
LEWISTOWN      CLEAR     42  37  82 SE7       30.34F
GREAT FALLS    CLEAR     44  40  85 SW6       30.32F
CUT BANK       CLEAR     51  42  71 E3        30.31F
HELENA         CLEAR     51  40  65 W8        30.31S
BUTTE          CLEAR     43  36  76 SE3       30.37S
BOZEMAN        CLEAR     46  38  73 NE6       30.34R

WESTERN MONTANA


CITY           SKY/WX    TMP DP  RH WIND       PRES   REMARKS
MISSOULA       CLEAR     53  41  63 N6        30.25S
KALISPELL      NOT AVBL

NORTH DAKOTA


CITY           SKY/WX    TMP DP  RH WIND       PRES   REMARKS
WILLISTON      CLOUDY    53  39  59 N3        30.26R
DICKINSON      CLEAR     41  32  70 SW9       30.27S
MINOT          CLOUDY    51  43  74 SW9       30.24S
BISMARCK       CLEAR     43  38  82 W3        30.28S

SOUTHERN SASKATCHEWAN


CITY           SKY/WX    TMP DP  RH WIND       PRES   REMARKS
REGINA         CLOUDY    46  46 100 VRB2      30.26S
ESTEVAN        MOCLDY    48  45  87 SW7       30.24S
SWIFT CURRENT  PTCLDY    46  43  87 SW9       30.25F




USA.gov is the U.S. government's official web portal to all federal, state and local government web resources and services.